Miscellaneous Local Product
Issued by NWS Hastings, NE

Home | Current Version | Previous Version | Text Only | Print | Product List | Glossary Off
Versions: 1 2 3 4 5 6 7 8 9 10 11 12 13 14 15 16 17 18 19 20 21 22 23 24 25 26 27 28 29 30 31 32 33 34 35 36 37 38 39 40 41 42 43 44 45 46 47 48 49 50

717
AXUS43 KGID 220002
MISGRI

GID CWA HOURLY WEATHER ROUNDUP
NATIONAL WEATHER SERVICE HASTINGS NE
700 PM CDT THU SEP 21 2017

NOTE: "FAIR" INDICATES FEW OR NO CLOUDS BELOW 12,000 FEET WITH NO
SIGNIFICANT WEATHER AND/OR OBSTRUCTIONS TO VISIBILITY.

...SOUTH CENTRAL NEBRASKA...

CITY           SKY/WX    TMP DP  RH WIND       PRES   REMARKS
GRAND ISLAND   CLEAR     89  67  47 SE18G25   29.67F HX  92
HASTINGS       CLEAR     91  63  39 S10       29.68S HX  92
KEARNEY        CLEAR     91  51  25 S14       29.66R
ORD            CLEAR     89  60  37 SE13      29.63S
YORK           CLEAR     90  66  45 S16G24    29.70R HX  92
AURORA         CLEAR     88  65  47 SE14G21   29.68F
LEXINGTON      CLEAR     92  41  16 S14       29.64R
HOLDREGE       CLEAR     90  42  18 S9        29.66S
HEBRON         CLEAR     91  69  47 S15G24    29.71R HX  95

...NEBRASKA PANHANDLE...

CITY           SKY/WX    TMP DP  RH WIND       PRES   REMARKS
CHADRON        CLEAR     87  32  14 SE10      29.61R
ALLIANCE       CLEAR     81  46  29 E8        29.65F
SCOTTSBLUFF    CLEAR     83  38  20 E10       29.62F
SIDNEY         CLEAR     85  39  19 E12       29.66F

...WESTERN AND NORTH CENTRAL NEBRASKA...

CITY           SKY/WX    TMP DP  RH WIND       PRES   REMARKS
VALENTINE      CLEAR     87  50  27 S13       29.63S
AINSWORTH      CLEAR     83  56  39 SE8       29.65S
ONEILL         CLEAR     87  68  52 SE12G17   29.66S HX  90
BROKEN BOW     CLEAR     92  47  21 S14G23    29.64S
IMPERIAL       CLEAR     92  35  13 S20G31    29.61F
NORTH PLATTE   CLEAR     91  40  16 S13       29.61S
MCCOOK         LGT RAIN  92  42  17 S20G26    29.63R

...EASTERN NEBRASKA...

CITY           SKY/WX    TMP DP  RH WIND       PRES   REMARKS
NORFOLK        CLEAR     86  70  58 SE14G22   29.67S HX  90
SO SIOUX CITY  CLEAR     86  73  65 S9        29.70S HX  93
TEKAMAH        CLEAR     86  71  60 S10       29.71S HX  91
COLUMBUS       CLEAR     88  71  57 SE13      29.69R HX  94
ALBION         CLEAR     86  70  58 SE10      29.68R HX  90
OMAHA EPPLEY   PTCLDY    89  71  55 S22G28    29.74R HX  95
OFFUTT AFB     CLEAR     87  72  59 SE17      29.74R HX  94
MILLARD        CLEAR     90  73  57 S14G20    29.74R HX  99
LINCOLN        CLEAR     89  70  53 S18G31    29.71S HX  94
NEBRASKA CITY  CLEAR     87  74  66 S18G24    29.77S HX  95
BEATRICE       CLEAR     90  73  56 S15G24    29.73R HX  97
FALLS CITY     CLEAR     88  73  61 S16G23    29.78R HX  95

...NORTHERN KANSAS...

CITY           SKY/WX    TMP DP  RH WIND       PRES   REMARKS
GOODLAND       CLEAR     89  32  13 S20G31    29.66S
HILL CITY      CLEAR     96  41  15 S17G24    29.65S HX  92
NORTON         CLEAR     93  27   9 S14G24    29.64S
PHILLIPSBURG   CLEAR     97  36  11 S10G21    29.64S HX  92
SMITH CENTER   PTCLDY    91  57  31 S20G30    29.65S HX  90
HAYS           CLEAR     95  58  28 S28G33    29.66S HX  94
RUSSELL        PTCLDY    95  57  27 S29       29.67R HX  94
CONCORDIA      CLEAR     90  70  51 S16       29.70S HX  95
SALINA         PTCLDY    95  68  41 S25G36    29.71S HX  99
TOPEKA         CLEAR     88  75  65 S18G28    29.80R HX  97



USA.gov is the U.S. government's official web portal to all federal, state and local government web resources and services.